Rock Hill, SC

10:42 PM EST on December 13, 2017 (GMT -0500)
Rock Hill-York County-Bryant

Weather History for KUZA - February, 2013

Change the Weather History Date:

Thursday, February 14, 2013

  Actual Average Record
Temperature  
Mean Temperature 41 °F -  
Max Temperature 52 °F 55 °F 77 °F (1949)
Min Temperature 30 °F 33 °F 13 °F (1971)
Degree Days  
Heating Degree Days 24    
Moisture  
Dew Point 33 °F    
Average Humidity 76    
Maximum Humidity 96    
Minimum Humidity 50    
Precipitation  
Precipitation 0.00 in - - ()
Sea Level Pressure  
Sea Level Pressure 30.03 in    
Wind  
Wind Speed 2 mph (WSW)    
Max Wind Speed 9 mph    
Max Gust Speed -    
Visibility 9 miles    
Events      
Averages and records for this station are not official NWS values.
T = Trace of Precipitation, MM = Missing Value Source: NWS Daily Summary

Daily Weather History Graph

Daily Weather History Graph

Search for Another Location

Airport or City:

Trip Planner

Search our weather history database for the weather conditions in past years. The results will help you decide how hot, cold, wet, or windy it might be!

Date:

Astronomy

Feb. 14, 2013 Rise Set
Actual Time 7:10 AM EST 6:06 PM EST
Civil Twilight 6:45 AM EST 6:32 PM EST
Nautical Twilight 6:15 AM EST 7:01 PM EST
Astronomical Twilight 5:45 AM EST 7:31 PM EST
Moon 9:25 AM EST 10:53 PM EST
Length of Visible Light 11h 47m
Length of Day
10h 55m
Waxing Crescent, 21% of the Moon is Illuminated
Feb 14
Waxing Crescent
Feb 17
First Quarter
Feb 25
Full
Mar 4
Last Quarter
Mar 11
New

Hourly Weather History & Observations

Time (EST) Temp. Windchill Dew Point Humidity Pressure Visibility Wind Dir Wind Speed Gust Speed Precip Events Conditions
12:54 AM 34.0 °F - 33.1 °F 96% 29.91 in 10.0 mi Calm Calm - N/A   Clear
1:54 AM 33.1 °F - 32.0 °F 96% 29.92 in 10.0 mi Calm Calm - N/A   Clear
2:54 AM 32.0 °F - 30.9 °F 96% 29.94 in 7.0 mi Calm Calm - N/A   Clear
3:54 AM 32.0 °F - 30.9 °F 96% 29.95 in 10.0 mi Calm Calm - N/A   Clear
4:54 AM 30.9 °F - 28.9 °F 92% 29.97 in 10.0 mi Calm Calm - N/A   Clear
5:54 AM 30.0 °F - 28.0 °F 92% 29.99 in 10.0 mi Calm Calm - N/A   Clear
6:54 AM 30.0 °F - 28.0 °F 92% 30.01 in 9.0 mi Calm Calm - N/A   Clear
7:54 AM 30.9 °F 27.5 °F 30.0 °F 96% 30.06 in 7.0 mi SSW 3.5 mph - N/A   Clear
8:54 AM 39.0 °F 36.8 °F 35.1 °F 86% 30.06 in 8.0 mi NNE 3.5 mph - N/A   Clear
9:54 AM 44.1 °F 40.1 °F 34.0 °F 68% 30.06 in 10.0 mi North 6.9 mph - N/A   Clear
10:54 AM 46.0 °F - 33.1 °F 61% 30.07 in 10.0 mi Calm Calm - N/A   Clear
11:54 AM 48.0 °F - 33.1 °F 56% 30.08 in 10.0 mi Variable 3.5 mph - N/A   Clear
12:54 PM 48.9 °F - 33.1 °F 54% 30.06 in 10.0 mi Variable 6.9 mph - N/A   Clear
1:03 PM 48.9 °F - 34.0 °F 56% 30.03 in 2.5 mi West 9.2 mph - N/A   Haze
1:12 PM 48.9 °F - 34.0 °F 56% 30.02 in 10.0 mi West 8.1 mph - N/A   Clear
1:54 PM 50.0 °F - 33.1 °F 52% 30.04 in 10.0 mi West 8.1 mph - N/A   Clear
2:54 PM 52.0 °F - 34.0 °F 50% 30.02 in 10.0 mi SW 5.8 mph - N/A   Clear
3:54 PM 51.1 °F - 33.1 °F 50% 30.02 in 10.0 mi WSW 5.8 mph - N/A   Clear
4:54 PM 50.0 °F - 33.1 °F 52% 30.03 in 10.0 mi West 5.8 mph - N/A   Clear
5:54 PM 48.0 °F - 35.1 °F 61% 30.02 in 10.0 mi SW 4.6 mph - N/A   Clear
6:54 PM 42.1 °F - 34.0 °F 73% 30.03 in 10.0 mi Calm Calm - N/A   Clear
7:54 PM 39.9 °F - 34.0 °F 79% 30.06 in 10.0 mi Calm Calm - N/A   Clear
8:54 PM 37.0 °F 33.3 °F 34.0 °F 89% 30.07 in 10.0 mi SSW 4.6 mph - N/A   Clear
9:54 PM 37.9 °F - 35.1 °F 89% 30.08 in 10.0 mi Calm Calm - N/A   Clear
10:54 PM 34.0 °F 31.0 °F 33.1 °F 96% 30.07 in 9.0 mi SSW 3.5 mph - N/A   Clear
11:54 PM 34.0 °F 31.0 °F 33.1 °F 96% 30.09 in 9.0 mi SSW 3.5 mph - N/A   Clear